Satellite: MET-3/5
Catalog number: 21655
Epoch time:      08282.91922053
Element set:    0500
Inclination:      082.5590 deg
RA of node:       024.0211 deg
Eccentricity:    0.0014766
Arg of perigee:   088.7580 deg
Mean anomaly:     271.5234 deg
Mean motion:   13.17017020 rev/day
Decay rate:        5.1e-07 rev/day^2
Epoch rev:           82455
Checksum:              269

Satellite: MET-2/21
Catalog number: 22782
Epoch time:      08282.81514807
Element set:     269
Inclination:      082.5511 deg
RA of node:       021.4245 deg
Eccentricity:    0.0021865
Arg of perigee:   335.3573 deg
Mean anomaly:     024.6529 deg
Mean motion:   13.83632857 rev/day
Decay rate:        4.0e-08 rev/day^2
Epoch rev:           76284
Checksum:              305

Satellite: OKEAN-4
Catalog number: 23317
Epoch time:      08282.84410262
Element set:    0716
Inclination:      082.5399 deg
RA of node:       209.0093 deg
Eccentricity:    0.0023731
Arg of perigee:   110.7461 deg
Mean anomaly:     249.6318 deg
Mean motion:   14.82640004 rev/day
Decay rate:       1.85e-06 rev/day^2
Epoch rev:           75512
Checksum:              282

Satellite: NOAA-14
Catalog number: 23455
Epoch time:      08283.21000548
Element set:     342
Inclination:      098.9357 deg
RA of node:       355.4599 deg
Eccentricity:    0.0009522
Arg of perigee:   176.8264 deg
Mean anomaly:     183.2994 deg
Mean motion:   14.13747994 rev/day
Decay rate:      -2.08e-06 rev/day^2
Epoch rev:           71046
Checksum:              331

Satellite: NOAA-15
Catalog number: 25338
Epoch time:      08283.47993115
Element set:     654
Inclination:      098.5665 deg
RA of node:       272.4911 deg
Eccentricity:    0.0011617
Arg of perigee:   070.8852 deg
Mean anomaly:     289.3575 deg
Mean motion:   14.24727269 rev/day
Decay rate:       -1.8e-07 rev/day^2
Epoch rev:           54107
Checksum:              334

Satellite: RESURS
Catalog number: 25394
Epoch time:      08283.69742073
Element set:      41
Inclination:      098.3755 deg
RA of node:       322.3716 deg
Eccentricity:    0.0000582
Arg of perigee:   202.4247 deg
Mean anomaly:     157.6907 deg
Mean motion:   14.24172456 rev/day
Decay rate:        9.0e-08 rev/day^2
Epoch rev:           53274
Checksum:              296

Satellite: FENGYUN1
Catalog number: 25730
Epoch time:      08282.91958198
Element set:    0587
Inclination:      098.7336 deg
RA of node:       254.9042 deg
Eccentricity:    0.0019590
Arg of perigee:   204.4770 deg
Mean anomaly:     155.5472 deg
Mean motion:   14.07801539 rev/day
Decay rate:       5.50e-06 rev/day^2
Epoch rev:           48496
Checksum:              335

Satellite: OKEAN-0
Catalog number: 25860
Epoch time:      08282.79019300
Element set:    0494
Inclination:      097.7617 deg
RA of node:       268.3767 deg
Eccentricity:    0.0000628
Arg of perigee:   047.9042 deg
Mean anomaly:     312.2217 deg
Mean motion:   14.73538422 rev/day
Decay rate:        1.7e-07 rev/day^2
Epoch rev:           49612
Checksum:              303

Satellite: NOAA-16
Catalog number: 26536
Epoch time:      08283.46549571
Element set:     128
Inclination:      099.1683 deg
RA of node:       275.2050 deg
Eccentricity:    0.0009716
Arg of perigee:   264.5159 deg
Mean anomaly:     095.4948 deg
Mean motion:   14.12499504 rev/day
Decay rate:       2.45e-06 rev/day^2
Epoch rev:           41490
Checksum:              331

Satellite: NOAA-17
Catalog number: 27453
Epoch time:      08283.23289728
Element set:     128
Inclination:      098.5221 deg
RA of node:       344.4869 deg
Eccentricity:    0.0012590
Arg of perigee:   133.4700 deg
Mean anomaly:     226.7555 deg
Mean motion:   14.24007299 rev/day
Decay rate:       -5.2e-07 rev/day^2
Epoch rev:           32703
Checksum:              306

Satellite: NOAA-18
Catalog number: 28654
Epoch time:      08283.20486528
Element set:     615
Inclination:      098.8765 deg
RA of node:       222.7724 deg
Eccentricity:    0.0014493
Arg of perigee:   355.7869 deg
Mean anomaly:     004.3184 deg
Mean motion:   14.11197077 rev/day
Decay rate:      -1.66e-06 rev/day^2
Epoch rev:           17455
Checksum:              339

/EX
SB KEPS @ AMSAT  $ORB08283.M
Orbital Elements  08283.MISC

HR AMSAT ORBITAL ELEMENTS FOR MANNED AND MISCELLANEOUS SATELLITES
FROM WA5QGD FORT WORTH,TX October 9, 2008
Send Subscribe/unsubscribe to KEPS at 
http://www.amsat.org/mailman/listinfo/keps
BID: ORB08283.M
TO ALL RADIO AMATEURS BT

Satellite: HUBBLE
Catalog number: 20580
Epoch time:      08282.49108030
Element set:    0251
Inclination:      028.4705 deg
RA of node:       304.2060 deg
Eccentricity:    0.0003909
Arg of perigee:   147.6594 deg
Mean anomaly:     212.4235 deg
Mean motion:   15.00414011 rev/day
Decay rate:       3.28e-06 rev/day^2
Epoch rev:           81201
Checksum:              236

Satellite: PO-34
Catalog number: 25520
Epoch time:      08282.92813465
Element set:    0097
Inclination:      028.4585 deg
RA of node:       137.2701 deg
Eccentricity:    0.0005508
Arg of perigee:   087.2232 deg
Mean anomaly:     272.8995 deg
Mean motion:   15.17238693 rev/day
Decay rate:       5.11e-06 rev/day^2
Epoch rev:           55045
Checksum:              313

